Location: Rowland
(34.5359°N, 79.2929°W)
Time: 15:45:11
(UTC+00:00)

Transit 2A Rocket - All Passes

Search period start: 03 October 2022 00:00
Search period end: 13 October 2022 00:00
Orbit: 593 x 908 km, 66.7° (Epoch: 02 October)

Date Brightness Start Highest point End Pass type
(mag) Time Alt. Az. Time Alt. Az. Time Alt. Az.
03 Oct - 10:23:32 10° SSW 10:27:53 79° ESE 10:32:11 10° NNE visible
03 Oct - 19:09:26 10° N 19:13:40 28° ENE 19:18:12 10° ESE daylight
03 Oct - 20:51:39 10° NW 20:56:10 33° WSW 21:01:01 10° S daylight
04 Oct - 09:41:05 10° S 09:45:06 36° ESE 09:49:03 10° NE visible
04 Oct - 11:24:48 10° W 11:27:41 17° NW 11:30:35 10° N daylight
04 Oct - 18:27:29 10° NNE 18:30:33 16° NE 18:33:45 10° E daylight
04 Oct - 20:08:24 10° NW 20:13:21 61° WSW 20:18:46 10° SSE daylight
05 Oct - 08:59:27 10° SSE 09:02:23 18° ESE 09:05:18 10° ENE visible
05 Oct - 10:40:42 10° WSW 10:44:36 32° WNW 10:48:29 10° N visible
05 Oct - 19:25:29 10° NNW 19:30:29 73° ENE 19:35:58 10° SSE daylight
05 Oct - 21:10:45 10° W 21:12:34 12° WSW 21:14:24 10° SW daylight
06 Oct - 09:57:19 10° SW 10:01:38 66° WNW 10:05:55 10° NNE visible
06 Oct - 18:42:52 10° N 18:47:32 39° ENE 18:52:37 10° SE daylight
06 Oct - 20:25:55 10° WNW 20:29:53 23° WSW 20:34:05 10° SSW daylight
07 Oct - 09:14:31 10° SSW 09:18:47 58° ESE 09:23:01 10° NE visible
07 Oct - 11:00:00 10° WNW 11:01:39 12° NW 11:03:18 10° NNW daylight
07 Oct - 18:00:35 10° N 18:04:30 23° NE 18:08:40 10° ESE daylight
07 Oct - 19:42:20 10° NW 19:47:07 42° WSW 19:52:17 10° S daylight
08 Oct - 08:32:21 10° SSE 08:36:02 27° ESE 08:39:40 10° NE visible
08 Oct - 10:15:06 10° WSW 10:18:28 22° NW 10:21:51 10° N visible
08 Oct - 17:18:59 10° NNE 17:21:19 13° NE 17:23:44 10° ENE daylight
08 Oct - 18:59:13 10° NNW 19:04:17 79° WSW 19:09:48 10° SSE daylight
09 Oct - 07:51:17 10° SE 07:53:22 13° ESE 07:55:26 10° ENE visible
09 Oct - 09:31:20 10° SW 09:35:25 42° WNW 09:39:32 10° NNE visible
09 Oct - 18:16:25 10° NNW 18:21:23 57° ENE 18:26:47 10° SE daylight
09 Oct - 20:00:31 10° WNW 20:03:33 16° WSW 20:06:43 10° SW daylight
10 Oct - 08:48:10 10° SSW 08:52:30 88° WNW 08:56:49 10° NNE visible
10 Oct - 17:33:55 10° N 17:38:23 32° ENE 17:43:13 10° ESE daylight
10 Oct - 19:16:26 10° NW 19:20:50 29° WSW 19:25:33 10° SSW daylight
11 Oct - 08:05:36 10° S 08:09:41 42° ESE 08:13:46 10° NE visible
11 Oct - 09:49:50 10° W 09:52:22 15° NW 09:54:57 10° NNW visible
11 Oct - 16:51:48 10° N 16:55:17 19° NE 16:58:58 10° E daylight
11 Oct - 18:33:03 10° NW 18:38:02 54° WSW 18:43:27 10° S daylight
12 Oct - 07:23:45 10° SSE 07:26:58 21° ESE 07:30:10 10° ENE visible
12 Oct - 09:05:32 10° WSW 09:09:15 28° WNW 09:12:59 10° N visible
12 Oct - 16:11:03 10° NE 16:12:03 10° NE 16:13:04 10° ENE daylight
12 Oct - 17:50:04 10° NNW 17:55:10 83° ENE 18:00:45 10° SSE daylight
12 Oct - 19:36:37 10° W 19:37:11 10° WSW 19:37:45 10° WSW daylight
